Change the Weather History Date:

Friday, November 9, 2012

  Actual Average (KSBY) Record (KSBY)
Temperature  
Mean Temperature 44 °F 50 °F  
Max Temperature 54 °F 61 °F 80 °F (1986)
Min Temperature 33 °F 40 °F 21 °F (1967)
Degree Days  
Heating Degree Days 22 15  
Month to date heating degree days 124  
Since 1 July heating degree days 437  
Cooling Degree Days 0 0  
Month to date cooling degree days 0  
Year to date cooling degree days 1150  
Moisture  
Dew Point 29 °F    
Average Humidity 63    
Maximum Humidity 100    
Minimum Humidity 43    
Precipitation  
Precipitation 0.00 in 0.11 in 1.75 in (1997)
Month to date precipitation 1.03  
Year to date precipitation 39.57  
Snow  
Snow 0.00 in 0.00 in 0.00 in (2002)
Month to date snowfall 0.0  
Since 1 July snowfall 0.0  
Snow Depth -    
Sea Level Pressure  
Sea Level Pressure 30.14 in    
Wind  
Wind Speed 8 mph (NW)    
Max Wind Speed 16 mph    
Max Gust Speed 24 mph    
Visibility 10 miles    
Events      
T = Trace of Precipitation, MM = Missing Value Source: NWS Daily Summary

Daily Weather History Graph

Daily Weather History Graph

Search for Another Location

Airport or City:

Trip Planner

Search our weather history database for the weather conditions in past years. The results will help you decide how hot, cold, wet, or windy it might be!

Date:

Astronomy

Nov. 09, 2012 Rise Set
Actual Time 6:35 AM EST 4:52 PM EST
Civil Twilight 6:07 AM EST 5:20 PM EST
Nautical Twilight 5:36 AM EST 5:51 PM EST
Astronomical Twilight 5:05 AM EST 6:23 PM EST
Moon 1:35 AM EST (11/9) 2:01 PM EST (11/9)
Length of Visible Light 11h 12m
Length of Day
10h 16m
Waning Crescent, 23% of the Moon is Illuminated
Nov 9
Waning Crescent
Nov 13
New
Nov 20
First Quarter
Nov 28
Full
Dec 6
Last Quarter

Hourly Weather History & Observations

Time (EST) Temp. Windchill Dew Point Humidity Pressure Visibility Wind Dir Wind Speed Gust Speed Precip Events Conditions
12:53 AM 39.9 °F 33.4 °F 21.0 °F 47% 30.00 in 10.0 mi NNW 10.4 mph - N/A   Clear
1:53 AM 39.0 °F 32.3 °F 19.9 °F 46% 30.02 in 10.0 mi NNW 10.4 mph - N/A   Clear
2:53 AM 37.0 °F 31.6 °F 21.0 °F 52% 30.04 in 10.0 mi NNW 6.9 mph - N/A   Clear
3:53 AM 37.0 °F 32.4 °F 21.0 °F 52% 30.05 in 10.0 mi NW 5.8 mph - N/A   Clear
4:53 AM 35.1 °F 31.0 °F 23.0 °F 61% 30.07 in 10.0 mi NW 4.6 mph - N/A   Clear
5:53 AM 33.1 °F 30.0 °F 23.0 °F 66% 30.09 in 10.0 mi NNW 3.5 mph - N/A   Clear
6:53 AM 36.0 °F 29.6 °F 24.1 °F 62% 30.12 in 10.0 mi NW 8.1 mph - N/A   Clear
7:53 AM 39.9 °F 32.9 °F 26.1 °F 58% 30.14 in 10.0 mi NW 11.5 mph 18.4 mph N/A   Clear
8:53 AM 45.0 °F 37.9 °F 28.9 °F 53% 30.15 in 10.0 mi NNW 16.1 mph 24.2 mph N/A   Clear
9:53 AM 48.0 °F - 30.0 °F 50% 30.16 in 10.0 mi NNW 16.1 mph 20.7 mph N/A   Clear
10:53 AM 50.0 °F - 28.9 °F 44% 30.16 in 10.0 mi NNW 13.8 mph - N/A   Clear
11:53 AM 52.0 °F - 30.0 °F 43% 30.15 in 10.0 mi NNW 11.5 mph 18.4 mph N/A   Clear
12:53 PM 53.1 °F - 30.9 °F 43% 30.14 in 10.0 mi WNW 11.5 mph - N/A   Clear
1:53 PM 54.0 °F - 32.0 °F 43% 30.14 in 10.0 mi NW 9.2 mph 17.3 mph N/A   Clear
2:53 PM 54.0 °F - 32.0 °F 43% 30.14 in 10.0 mi WNW 8.1 mph 17.3 mph N/A   Clear
3:53 PM 52.0 °F - 34.0 °F 50% 30.16 in 10.0 mi WNW 8.1 mph - N/A   Clear
4:53 PM 48.0 °F - 34.0 °F 58% 30.17 in 10.0 mi West 3.5 mph - N/A   Clear
5:53 PM 43.0 °F 41.3 °F 36.0 °F 76% 30.19 in 10.0 mi West 3.5 mph - N/A   Clear
6:53 PM 39.0 °F - 36.0 °F 89% 30.21 in 10.0 mi Calm Calm - N/A   Clear
7:53 PM 39.9 °F 37.8 °F 36.0 °F 86% 30.22 in 10.0 mi West 3.5 mph - N/A   Clear
8:53 PM 39.0 °F 36.8 °F 36.0 °F 89% 30.23 in 10.0 mi West 3.5 mph - N/A   Clear
9:53 PM 35.1 °F 32.2 °F 34.0 °F 96% 30.24 in 10.0 mi WNW 3.5 mph - N/A   Clear
10:53 PM 34.0 °F - 34.0 °F 100% 30.24 in 9.0 mi Calm Calm - N/A   Clear
11:53 PM 35.1 °F - 34.0 °F 96% 30.23 in 8.0 mi Calm Calm - N/A   Clear